This is the latest recevied weather packets stored in our database for station/object N3OZD-10. If no packets are shown the sender has not sent any weather packets the latest 10 day(s).
| Time | Temp. | Humidity | Pressure | Rain* | Wind** | Luminosity | Snow |
|---|---|---|---|---|---|---|---|
| 1777651355 | 13.89° C | 44% | 1013.7 hPa | 0 mm | - | - | - |
| 1777651052 | 14.44° C | 46% | 1013.8 hPa | 0 mm | - | - | - |
| 1777650752 | 13.89° C | 45% | 1013.8 hPa | 0 mm | - | - | - |
| 1777650452 | 14.44° C | 51% | 1014 hPa | 0.25 mm | - | - | - |
| 1777650152 | 13.89° C | 46% | 1014 hPa | 0.25 mm | - | - | - |
| 1777649853 | 13.89° C | 48% | 1014.1 hPa | 0.25 mm | - | - | - |
| 1777649552 | 13.89° C | 48% | 1014.3 hPa | 0.25 mm | - | - | - |
| 1777649252 | 13.89° C | 48% | 1014.4 hPa | 0.25 mm | - | - | - |
| 1777648952 | 13.33° C | 49% | 1014.4 hPa | 0.25 mm | - | - | - |
| 1777648653 | 13.89° C | 49% | 1014.5 hPa | 0.25 mm | - | - | - |
| 1777648352 | 13.33° C | 47% | 1014.5 hPa | 0.25 mm | - | - | - |
| 1777648052 | 13.33° C | 47% | 1014.6 hPa | 0.25 mm | - | - | - |
| 1777647752 | 13.33° C | 47% | 1014.6 hPa | 0.25 mm | - | - | - |
| 1777647453 | 13.33° C | 48% | 1014.6 hPa | 0.25 mm | - | - | - |
| 1777647152 | 12.78° C | 47% | 1014.7 hPa | 0.25 mm | - | - | - |
| 1777646852 | 12.78° C | 48% | 1014.7 hPa | 0 mm | - | - | - |
| 1777646553 | 12.78° C | 48% | 1014.7 hPa | 0 mm | - | - | - |
| 1777646252 | 12.78° C | 47% | 1014.7 hPa | 0 mm | - | - | - |
| 1777645952 | 12.78° C | 53% | 1014.7 hPa | 0 mm | - | - | - |
| 1777645653 | 12.78° C | 50% | 1014.7 hPa | 0 mm | - | - | - |
| 1777645352 | 12.22° C | 52% | 1014.8 hPa | 0.25 mm | - | - | - |
| 1777645052 | 12.22° C | 50% | 1014.8 hPa | 0.25 mm | - | - | - |
| 1777644752 | 12.22° C | 49% | 1014.8 hPa | 0.25 mm | - | - | - |
| 1777644452 | 12.22° C | 52% | 1014.7 hPa | 0.25 mm | - | - | - |
| 1777644153 | 12.22° C | 55% | 1014.8 hPa | 0.25 mm | - | - | - |
* Rain latest hour (hover to see other rain measurements)
** Current wind speed in m/s (hover to see current wind gust speed)